GFSSGP_prec_cthk_057.txt.gz
RH
75 79 86 94 99 94 85 86 83 82 83 80 79 80 83 82 81 84 83 81 80 76 67 48 39 30 32 33 35 36 43 51 58 61 60 58 62 65 62 62 59 56 57 55 53 52 51 49 49
75 80 87 93 98 86 85 88 88 83 82 79 82 83 83 85 84 83 79 78 75 69 57 40 34 31 30 34 41 40 42 48 52 55 56 55 64 64 55 54 51 63 65 64 58 60 56 56 59
76 79 88 92 91 87 95 86 82 80 84 79 83 87 87 88 85 81 79 76 70 61 49 34 32 30 30 34 36 37 38 43 50 52 58 58 56 59 48 57 69 76 64 57 52 61 63 68 73
79 84 86 92 88 88 91 83 81 79 80 82 84 88 89 87 85 80 77 74 66 54 44 31 33 29 33 37 34 37 44 42 44 50 51 48 45 49 56 60 50 51 50 50 53 60 63 65 65
83 86 87 88 89 86 84 83 81 81 82 83 85 89 89 88 82 78 75 71 59 51 40 31 33 29 33 39 35 37 44 48 45 44 44 45 47 43 37 38 35 38 41 48 53 62 67 69 57
86 85 84 88 84 82 80 80 77 80 81 82 83 87 88 87 81 78 73 66 56 48 38 33 34 30 33 41 35 39 43 48 50 50 51 46 36 30 28 32 34 38 43 50 55 62 68 64 58
81 83 80 77 79 79 77 76 76 76 77 78 81 84 86 84 79 76 70 63 55 44 38 34 38 29 32 36 35 37 42 44 48 52 46 35 31 31 38 49 50 50 55 56 54 54 62 64 62
80 78 79 77 77 77 77 80 77 74 75 78 81 82 84 80 78 75 66 60 51 39 37 34 34 30 31 33 35 35 38 44 52 45 35 34 36 42 50 49 50 45 49 61 56 52 54 58 60
83 81 77 74 75 77 78 79 79 73 75 74 78 77 76 77 77 69 64 59 48 39 36 34 33 28 32 34 37 39 42 47 43 33 35 33 39 44 50 52 52 49 43 53 59 54 58 59 59
84 80 74 72 75 78 80 78 77 72 68 69 73 73 76 75 70 64 62 56 43 38 36 33 30 29 32 35 39 45 48 45 32 33 33 40 44 46 55 61 53 44 43 37 47 55 57 61 66
72 78 75 74 73 79 74 69 73 62 64 64 62 68 74 72 68 64 58 50 41 36 33 29 28 30 34 38 44 47 42 35 34 36 42 49 50 55 57 54 51 43 41 42 36 40 48 54 59
65 73 78 75 71 70 69 62 65 61 58 56 54 62 69 67 65 61 53 46 40 36 28 27 29 35 39 41 45 43 36 37 40 46 55 54 60 63 60 55 55 51 51 53 43 36 35 42 49
59 69 72 74 74 70 70 59 57 60 57 55 56 62 65 69 62 60 53 46 41 34 28 28 32 36 40 40 43 41 42 46 56 59 64 60 63 60 57 55 46 42 46 56 47 40 35 41 45
55 55 65 73 74 71 63 58 57 55 55 53 55 57 58 64 60 58 50 44 39 32 27 29 34 37 39 40 46 45 52 56 58 59 55 58 65 68 56 48 42 44 41 47 47 43 39 35 44
44 57 62 66 70 71 65 60 54 51 52 53 50 52 54 59 60 57 51 45 36 32 28 29 32 36 37 42 46 46 58 62 58 55 58 55 59 64 58 51 48 52 56 55 51 50 41 36 37
31 46 63 64 66 66 63 59 55 55 54 53 51 50 52 53 57 56 50 46 40 34 30 27 31 35 36 44 49 50 63 63 58 58 62 61 63 61 55 51 47 47 56 54 58 60 49 46 42
29 32 52 60 62 65 63 61 63 63 56 52 50 43 49 50 52 55 49 47 41 35 32 28 28 32 35 40 51 52 62 63 60 59 61 58 56 55 51 47 50 51 53 51 50 50 49 47 46
25 28 44 55 59 60 61 62 64 65 62 56 53 45 42 48 47 49 48 47 44 38 35 31 26 30 33 39 47 48 51 56 56 56 56 54 52 51 51 46 50 52 52 57 50 49 53 53 57
22 29 34 54 60 56 55 57 64 68 61 57 60 59 52 40 43 49 48 47 47 42 38 32 27 27 30 32 34 39 40 43 49 47 49 50 53 57 55 50 51 53 52 56 50 47 51 55 61
15 25 32 44 56 59 56 58 62 64 62 58 61 61 57 47 49 41 45 46 46 44 39 35 30 26 28 28 30 34 36 40 44 44 43 49 49 51 53 52 54 52 52 46 46 46 47 51 52
14 18 26 37 50 54 56 61 63 64 63 61 62 65 63 60 48 47 40 40 45 44 41 36 32 29 27 28 30 34 36 39 42 41 41 48 49 47 49 48 51 51 56 47 44 41 41 43 46
17 12 20 31 42 49 56 56 57 61 64 61 60 60 62 60 55 48 44 36 39 42 40 39 35 33 27 28 28 32 33 36 37 39 41 48 47 47 48 47 48 49 53 49 42 41 40 37 39
19 15 12 25 38 45 48 58 47 49 61 60 56 57 60 63 60 53 44 34 33 41 39 38 39 37 29 27 29 32 34 35 36 38 39 45 42 42 44 43 44 46 49 52 43 43 42 40 37
24 22 18 12 26 43 40 46 41 45 44 53 53 56 58 60 63 60 48 40 32 35 40 39 40 39 32 30 31 33 35 36 38 37 36 39 38 38 39 41 40 41 43 51 48 40 41 39 40
31 28 28 27 20 27 29 42 35 36 39 49 48 53 53 59 60 59 52 41 33 29 32 35 37 38 34 32 32 34 34 37 38 37 35 32 32 33 32 34 36 37 38 39 43 41 40 37 36
32 33 27 32 20 14 21 35 31 32 34 43 46 50 55 58 58 57 53 51 37 28 24 27 32 34 32 32 33 34 35 35 35 35 34 31 30 29 30 30 33 34 35 35 37 39 39 36 33
40 37 28 28 28 21 14 21 24 27 32 40 45 50 51 54 54 51 50 53 51 39 26 22 25 29 30 30 30 32 34 34 33 32 32 30 29 31 28 27 29 32 33 33 34 36 36 35 36
42 37 46 41 31 27 22 19 16 21 26 32 42 44 47 50 50 50 48 47 50 45 39 30 24 25 26 29 28 29 30 30 30 31 31 30 29 29 27 25 27 30 30 32 31 33 36 35 36
45 49 46 43 34 27 26 22 15 15 19 24 31 39 44 49 46 45 47 42 46 48 42 36 31 26 28 28 28 28 29 30 31 31 30 29 30 30 26 24 27 30 29 28 28 28 32 33 36
54 56 47 49 46 37 33 23 16 16 14 19 26 38 45 46 46 46 46 48 45 45 46 38 35 32 28 28 29 29 29 30 30 30 29 28 29 29 27 25 25 26 27 27 26 26 25 30 32

GFSSGP_prec_cthk_060.txt.gz
RH
72 80 86 92 97 92 83 80 78 80 77 76 75 77 78 78 82 84 83 82 81 76 65 52 33 32 35 37 39 45 52 55 56 57 60 64 63 65 65 59 55 56 55 57 54 51 50 46 44
75 79 85 94 94 88 86 79 79 75 76 76 78 78 78 82 84 82 83 80 77 71 57 45 32 34 35 38 39 46 53 58 58 56 57 68 66 56 54 54 61 70 72 57 62 56 54 62 59
74 78 85 90 88 86 90 79 79 78 75 77 80 81 84 86 85 82 82 79 74 64 52 37 34 32 37 41 41 45 48 50 55 59 61 59 59 52 66 64 70 64 58 52 63 61 67 72 64
77 80 80 84 79 82 86 77 74 77 77 77 81 84 86 87 83 82 81 77 71 58 47 35 32 32 39 37 37 40 45 48 54 53 51 47 57 61 54 48 50 55 56 54 63 60 66 68 53
82 85 85 82 83 81 78 78 76 76 77 78 82 84 90 86 84 82 80 76 65 54 42 39 31 39 38 34 44 47 43 42 47 44 46 54 48 40 40 39 46 48 51 53 64 68 67 55 47
83 83 79 82 82 78 77 77 77 79 79 82 82 82 88 86 83 81 79 73 60 50 41 38 31 35 38 34 40 45 45 44 46 48 50 40 34 37 38 40 40 46 51 53 62 71 68 56 47
85 78 77 73 74 76 76 75 75 78 78 80 80 81 86 85 83 81 77 67 57 49 44 41 34 34 45 34 42 44 45 47 49 46 37 32 30 40 54 49 48 50 53 54 60 67 70 62 52
82 76 73 72 75 75 73 74 75 74 76 77 79 81 85 82 81 80 74 63 57 48 44 45 38 39 44 36 40 43 43 47 48 35 36 39 44 51 51 48 45 56 57 52 52 64 63 62 63
78 77 74 71 71 75 76 77 75 74 73 75 77 78 80 79 78 77 71 62 55 48 45 44 40 40 42 40 38 39 45 48 36 35 38 47 55 55 59 52 46 45 56 52 53 62 60 59 62
79 76 73 70 74 75 76 78 78 74 69 73 75 77 77 77 75 70 66 58 51 46 43 42 41 40 43 44 42 45 48 45 41 41 43 48 53 60 64 52 44 40 40 54 55 55 59 76 69
71 78 73 74 77 77 78 77 78 73 66 66 70 71 74 76 70 69 65 57 49 43 42 42 37 41 43 46 49 52 51 39 38 42 51 51 63 61 62 53 49 45 43 45 52 56 66 66 69
60 70 77 76 76 79 76 69 72 69 64 62 61 66 70 71 67 67 60 54 47 41 37 37 36 38 45 48 54 52 43 41 49 52 52 57 68 66 59 57 55 50 59 49 48 47 45 56 58
55 67 73 77 76 73 71 67 63 68 62 59 59 64 69 68 64 63 58 51 47 40 34 35 33 39 47 50 53 47 43 50 58 63 59 70 67 60 58 49 49 50 59 56 47 43 38 39 47
47 53 65 71 74 72 71 64 58 58 57 54 59 64 68 64 63 60 56 50 47 40 34 35 35 43 45 49 48 46 49 60 62 63 55 59 73 61 49 44 47 46 53 53 52 46 42 47 50
39 46 51 59 71 72 69 58 58 56 52 53 59 62 63 62 61 60 57 49 44 39 35 36 38 42 44 48 47 52 57 63 61 59 56 56 59 54 51 51 55 60 57 54 57 49 36 40 48
28 36 43 52 64 70 65 65 62 53 51 50 53 53 57 59 60 58 56 46 44 40 35 37 41 41 44 50 49 55 63 64 59 62 58 60 58 51 50 52 54 57 60 62 58 56 53 46 47
23 26 37 61 61 66 64 64 59 55 54 52 50 48 53 57 58 56 53 46 44 42 35 33 38 40 43 49 48 56 63 62 62 64 64 59 56 52 56 52 59 58 61 58 59 58 60 52 51
16 23 27 53 59 63 67 66 59 56 51 52 51 46 50 53 54 53 50 46 45 43 38 31 36 39 44 48 49 56 63 58 60 65 59 51 53 48 43 53 63 61 57 56 58 58 59 56 55
14 19 24 43 62 64 66 65 65 62 57 52 45 45 44 50 53 55 50 47 43 44 39 33 31 36 40 43 50 53 59 58 57 57 52 50 54 51 50 52 57 59 58 56 52 53 56 57 62
14 19 25 31 53 63 65 62 63 64 60 55 53 50 43 43 50 51 50 46 43 43 40 35 31 33 32 41 45 48 51 54 54 52 47 49 49 50 54 56 52 60 60 53 50 47 55 60 54
15 13 21 30 40 54 65 61 61 61 64 57 56 54 54 46 42 44 46 46 44 42 41 36 33 29 29 35 37 41 43 45 45 45 46 46 45 45 48 49 54 61 55 53 50 47 48 53 50
17 13 12 23 36 42 56 56 55 57 62 59 59 57 55 55 50 43 42 43 43 43 44 39 36 29 27 27 31 35 38 39 41 44 47 47 43 45 45 47 50 54 55 55 48 43 45 45 46
19 18 14 12 28 39 48 55 53 55 57 59 59 57 55 55 54 50 40 38 40 45 44 41 40 33 29 25 28 33 36 39 42 43 44 46 41 43 45 43 46 57 53 53 55 50 43 39 45
23 21 19 16 12 27 33 42 44 57 54 54 57 59 58 55 56 56 54 43 38 41 45 42 40 33 29 27 25 30 32 39 43 41 42 46 43 42 41 39 39 48 56 54 54 50 44 41 41
26 25 27 24 17 10 17 33 36 45 53 53 54 56 57 58 59 59 59 48 37 33 39 43 38 35 31 28 27 25 28 36 39 38 37 43 41 41 42 34 33 36 41 49 49 51 51 41 41
28 27 25 28 20 12 9 20 26 37 43 47 46 55 59 60 59 61 57 52 46 35 32 39 36 34 32 29 27 24 27 35 38 38 40 37 39 37 38 33 32 30 35 36 41 45 45 44 39
37 33 23 27 27 18 14 11 19 28 32 37 39 52 55 54 55 57 56 54 47 41 31 28 32 34 32 32 29 25 28 32 38 38 36 36 33 34 32 30 31 32 32 35 39 39 39 39 39
37 32 36 33 35 28 23 17 13 23 25 29 33 46 49 53 54 54 55 55 53 46 40 32 28 30 32 33 31 27 26 29 34 37 35 34 33 29 32 28 27 28 31 32 33 38 39 37 37
30 35 47 37 35 28 27 23 16 16 16 22 28 42 44 51 52 52 53 51 51 54 50 39 30 26 28 30 32 30 29 29 31 33 32 31 31 29 28 28 23 25 29 30 28 31 37 37 37
40 49 42 49 42 31 33 26 26 21 16 19 27 37 40 47 49 50 54 54 49 46 48 44 36 30 25 26 26 25 26 25 31 29 29 29 30 29 27 27 24 22 27 29 28 27 31 32 34

GFSSGP_prec_cthk_063.txt.gz
RH
70 78 85 87 90 82 84 82 77 73 74 74 71 74 82 81 82 86 83 83 75 67 55 43 40 39 40 44 48 52 54 56 59 60 60 61 67 65 56 52 53 53 57 55 55 52 47 45 54
74 77 84 89 86 84 84 75 79 76 72 71 72 76 77 79 80 79 81 78 71 63 49 36 32 34 36 40 46 52 56 57 57 61 69 67 58 61 58 63 76 74 59 61 56 59 68 57 60
73 76 84 86 83 95 83 76 78 74 73 74 76 80 80 82 80 79 79 75 68 57 47 33 32 34 37 40 47 54 58 58 61 61 62 59 58 66 68 66 69 62 55 67 63 65 71 68 57
75 78 79 84 82 76 81 79 74 74 74 76 77 80 83 84 81 81 78 73 65 56 44 31 31 39 39 41 44 47 49 59 57 55 51 58 62 54 52 55 57 56 54 64 61 61 67 55 47
80 86 80 76 74 73 69 74 76 72 72 74 80 82 83 84 85 81 79 71 62 55 37 34 32 42 37 38 41 45 47 54 49 47 51 48 43 42 43 49 53 51 54 66 64 66 55 45 44
85 81 83 76 75 72 75 74 73 72 75 76 80 82 85 84 85 82 79 70 60 50 43 33 37 39 34 46 49 45 44 44 42 50 43 39 41 38 42 40 48 48 51 59 67 63 51 43 39
84 78 85 84 70 72 77 69 76 77 76 78 81 84 85 83 83 81 77 66 60 49 44 39 42 41 34 43 47 46 46 47 48 38 32 28 38 51 47 48 50 51 48 62 69 64 55 44 38
76 77 70 78 68 84 69 73 70 78 72 75 79 80 82 81 80 81 75 65 57 55 46 42 41 52 39 43 46 45 47 48 39 33 31 45 51 47 49 48 55 53 49 57 62 59 57 56 47
75 77 71 67 65 75 64 70 70 67 72 72 74 78 79 80 79 78 72 63 57 54 50 47 46 52 41 45 45 43 47 42 33 36 45 52 58 58 51 44 46 50 47 48 56 51 53 56 55
77 79 73 77 67 73 66 70 70 66 69 72 75 77 78 77 77 74 65 62 54 51 53 53 49 48 45 46 41 50 50 39 45 44 50 54 69 62 53 40 37 41 48 47 50 60 90 63 63
70 79 72 69 70 67 68 71 72 77 67 65 72 74 78 76 76 69 62 60 51 47 53 53 47 45 50 47 49 52 50 45 47 46 59 61 61 59 56 48 41 38 38 50 50 82 62 70 66
63 67 72 77 71 69 71 71 73 70 72 59 67 69 78 74 70 66 61 54 49 47 50 48 45 45 55 46 55 54 51 46 50 56 58 62 71 72 59 62 50 72 55 43 39 57 58 61 89
55 65 70 71 71 72 77 68 68 72 68 56 60 67 73 71 69 65 60 53 49 47 45 46 42 44 50 52 56 53 49 54 62 55 61 79 60 64 52 48 65 60 55 56 51 38 44 41 51
44 51 63 69 70 71 65 67 64 68 58 58 59 64 69 71 67 59 58 50 49 45 44 45 42 40 49 57 51 48 54 66 65 70 63 68 73 57 48 48 44 70 77 50 51 47 47 54 65
36 42 48 56 67 70 66 76 60 77 54 54 58 61 68 68 63 59 57 50 48 41 38 41 39 43 47 56 48 47 60 68 66 62 59 64 64 56 52 58 77 58 56 53 52 39 38 49 55
31 35 41 47 56 62 65 66 58 58 52 50 56 60 66 65 63 59 57 51 49 41 38 41 44 45 47 54 48 57 62 64 64 62 58 56 57 54 72 52 65 57 71 64 67 55 47 50 49
24 27 33 42 44 55 63 69 81 63 54 54 54 55 59 61 58 56 56 52 48 42 38 39 45 45 47 52 52 60 64 66 62 62 65 59 60 63 59 61 67 72 55 58 54 70 58 46 45
14 21 24 34 55 55 63 72 78 73 58 55 48 49 50 58 55 55 55 52 47 43 37 37 42 45 47 52 52 59 65 65 69 69 67 53 54 51 46 74 61 57 65 68 58 55 56 52 61
14 16 22 32 48 60 56 68 73 65 64 54 50 46 46 50 54 54 53 49 47 45 38 34 38 41 45 50 50 58 64 60 64 67 59 51 55 51 49 68 55 58 56 68 47 53 52 49 48
14 17 19 27 40 52 55 59 66 62 53 49 47 46 44 49 53 52 51 49 46 45 40 36 35 38 42 46 49 57 61 63 65 61 52 54 55 52 54 62 58 65 55 48 52 65 59 65 55
16 15 17 24 31 51 58 58 64 78 55 54 55 50 43 44 45 49 47 46 45 44 41 38 30 31 37 42 47 52 58 65 60 61 54 51 50 49 52 52 70 57 53 61 43 39 54 54 50
18 17 15 19 28 37 46 60 68 65 62 55 56 53 49 42 44 48 48 45 43 43 42 40 31 27 30 34 43 45 49 51 55 53 55 51 45 47 47 49 54 51 57 61 47 44 52 47 47
19 20 16 13 17 29 38 45 60 60 68 57 58 55 52 51 46 39 36 41 43 44 43 40 36 30 27 28 37 41 44 45 47 49 55 51 44 46 50 48 55 49 49 52 51 45 43 45 49
21 20 20 18 15 16 25 38 44 60 58 56 55 57 55 58 54 51 45 42 42 43 46 42 38 32 28 26 25 32 35 42 45 45 53 48 50 45 45 45 58 50 54 50 50 46 42 46 42
23 23 24 24 20 15 11 24 35 42 47 61 49 56 55 58 55 57 53 47 44 36 39 42 39 35 29 27 23 25 29 31 38 45 46 50 50 50 44 36 42 48 51 52 51 53 49 42 39
27 25 25 28 22 14 11 11 20 36 47 47 58 55 53 55 56 55 55 56 54 43 34 36 39 36 33 28 25 22 24 29 33 39 43 44 50 47 48 38 36 36 43 42 45 47 46 45 38
29 32 21 28 25 21 15 12 9 21 35 45 58 57 67 55 54 54 57 57 59 55 40 29 33 36 35 33 28 25 23 25 33 37 35 43 44 47 41 40 34 36 36 38 42 40 45 61 44
33 34 31 28 35 30 21 18 15 12 19 32 43 51 50 70 50 59 57 58 58 57 52 40 30 33 34 35 32 28 24 23 27 33 36 36 38 36 41 35 33 31 35 35 36 38 40 43 42
29 31 42 39 31 32 30 21 19 17 16 23 29 40 44 52 50 60 61 62 58 58 51 47 39 31 33 34 33 30 28 26 23 30 31 33 33 35 30 31 29 28 28 31 33 30 42 40 37
24 31 26 45 44 32 29 25 23 21 20 24 29 32 39 43 58 59 61 61 60 59 56 48 44 37 28 29 32 31 31 28 27 25 29 31 31 30 31 30 29 26 26 27 28 28 29 34 37

GFSSGP_prec_cthk_069.txt.gz
RH
69 75 85 87 92 92 95 91 75 75 70 72 76 75 79 79 74 71 64 57 46 41 41 45 45 53 56 59 57 55 55 54 55 56 64 61 59 51 54 56 56 55 55 51 50 50 52 52 54
71 80 88 93 95 93 94 93 84 73 73 72 76 76 76 79 77 66 64 54 43 38 40 44 46 47 49 52 53 53 54 56 57 61 65 66 59 57 64 69 66 56 57 61 56 56 57 61 63
70 79 87 93 94 94 91 91 84 73 70 73 74 76 77 78 70 67 59 51 42 37 37 41 46 44 44 45 49 54 59 62 60 61 57 64 57 57 65 58 54 54 56 56 66 61 55 53 52
70 77 84 91 97 85 84 78 78 73 74 73 74 81 78 78 69 65 58 49 38 34 34 39 37 40 47 50 53 55 55 58 55 56 56 52 52 55 52 49 52 54 57 56 54 47 38 39 37
77 83 89 85 94 82 81 76 73 71 74 73 69 79 80 75 69 61 55 44 32 31 28 32 38 40 46 48 48 51 50 47 44 47 46 42 44 46 48 48 50 58 58 56 44 37 36 35 39
81 88 93 90 91 75 78 76 79 74 72 74 74 78 80 76 67 62 58 44 31 27 27 34 38 38 41 41 43 45 43 43 44 41 36 38 42 44 47 48 47 53 59 50 40 35 35 40 45
84 91 93 85 81 86 84 73 78 74 74 74 72 78 79 75 70 69 64 45 37 27 27 36 34 35 38 40 39 38 39 38 34 32 40 47 46 51 48 43 46 59 60 48 39 35 35 45 54
78 87 87 86 93 89 84 78 79 74 77 75 75 77 79 74 72 73 62 48 41 31 27 34 30 36 40 40 38 43 37 31 31 41 53 50 44 47 47 45 54 58 54 51 48 37 38 48 55
69 81 89 90 77 70 82 81 77 80 82 73 74 73 75 71 72 77 69 53 44 28 27 30 31 35 39 40 39 38 33 31 37 52 51 45 37 42 43 42 48 53 56 55 53 48 47 53 58
70 75 85 78 79 82 77 83 69 73 81 76 77 76 76 71 69 70 61 52 42 34 31 29 31 34 38 38 37 36 33 39 53 63 60 56 41 35 36 41 42 49 53 59 56 60 55 57 62
68 70 73 73 76 84 83 92 94 70 71 69 74 75 74 71 71 70 63 51 43 34 32 31 37 33 36 35 37 38 31 39 45 64 61 53 48 46 38 41 48 50 56 71 63 71 60 57 56
63 65 67 72 72 84 83 94 90 88 75 75 67 67 69 70 70 67 59 50 41 39 36 35 36 31 36 37 40 41 38 40 51 64 60 63 51 53 62 68 82 59 53 64 55 72 67 58 63
56 59 60 68 78 76 85 77 70 81 82 68 67 66 69 68 69 67 59 50 41 43 44 41 34 31 38 41 43 39 44 48 50 55 57 61 50 53 74 65 75 69 65 61 43 38 56 56 64
47 52 54 58 71 75 77 72 72 75 82 75 65 63 65 64 65 63 56 48 42 47 47 44 37 35 39 42 51 49 45 55 51 59 70 56 48 44 52 57 70 62 64 55 42 53 47 67 61
39 39 44 46 58 67 77 85 82 87 86 76 63 60 63 61 64 62 54 46 44 45 45 40 36 36 46 45 46 52 50 71 58 61 64 64 51 53 73 63 59 61 60 59 49 53 52 51 55
32 30 34 39 48 58 65 87 88 93 90 71 56 58 64 60 62 63 55 46 45 41 44 38 34 30 45 44 57 51 58 61 57 59 57 51 56 62 65 55 62 59 56 58 54 50 65 52 45
30 27 26 30 37 46 62 78 86 84 76 81 58 58 61 60 60 62 54 47 43 38 37 36 33 29 37 40 39 50 61 52 54 51 47 48 54 56 73 63 63 50 55 53 59 59 64 48 49
27 24 24 25 33 39 56 71 73 80 78 84 79 58 58 60 62 61 53 46 44 38 35 33 29 27 41 42 39 51 62 52 52 53 58 53 52 57 61 53 54 71 67 54 55 62 55 49 55
20 22 24 23 27 34 54 69 65 69 66 72 89 64 57 61 64 63 58 49 42 37 34 32 29 30 38 40 44 51 52 51 53 59 53 45 46 63 53 49 49 58 53 56 50 56 53 50 56
19 20 20 20 21 31 47 62 58 60 67 78 97 81 54 55 56 54 57 47 43 37 35 32 28 31 36 40 38 46 50 54 58 66 50 43 45 55 55 48 51 52 50 54 58 54 51 47 46
21 21 19 19 20 31 53 66 65 60 58 74 82 93 64 48 52 57 55 49 44 39 35 31 27 30 34 38 42 49 54 53 52 50 53 47 47 48 57 55 51 55 48 38 44 54 55 49 40
20 19 18 16 19 26 37 62 73 60 62 70 77 87 71 59 51 52 53 47 43 39 36 34 26 28 32 35 35 42 51 51 53 54 47 43 38 41 48 50 56 53 51 42 38 42 43 44 42
19 19 20 20 19 19 24 30 55 69 69 56 56 71 63 61 55 47 55 45 40 40 37 34 28 24 29 33 33 38 44 48 49 45 49 43 37 38 38 43 47 47 48 43 38 37 40 41 38
21 20 19 21 23 24 20 24 58 55 49 53 48 51 56 59 62 51 47 48 43 40 40 36 31 24 24 30 31 34 40 46 50 47 52 42 43 42 39 48 50 46 50 48 44 37 40 42 40
23 23 26 27 25 22 17 20 19 34 45 45 47 50 54 59 55 56 48 47 46 39 37 37 33 27 20 24 28 28 32 39 39 43 35 42 42 40 39 44 50 49 46 48 49 46 36 36 38
24 25 29 28 26 21 19 19 14 20 27 35 47 48 59 63 60 70 43 44 46 40 35 34 34 31 24 18 21 24 26 32 34 33 34 39 39 32 39 37 41 44 46 44 44 44 37 33 32
29 29 24 27 21 27 25 20 17 17 23 28 36 46 59 58 64 75 82 48 48 45 38 32 32 34 29 21 18 19 22 27 28 31 33 35 39 34 37 36 36 35 37 35 36 38 44 43 33
21 22 34 33 31 32 26 23 24 23 26 31 37 45 61 72 54 82 84 76 64 53 49 45 35 30 32 29 21 19 17 18 24 26 29 32 36 37 37 36 34 33 29 25 30 31 33 42 42
30 28 35 35 34 36 31 23 18 29 26 27 32 35 46 52 49 55 70 74 72 68 65 55 50 36 29 32 28 22 20 18 17 22 24 27 30 35 35 36 35 31 29 24 24 27 28 32 40
29 29 28 39 37 37 40 30 20 27 28 31 36 34 37 46 54 50 40 64 61 65 64 61 56 49 34 27 31 29 23 20 19 17 22 23 25 28 35 35 33 30 28 25 22 23 23 29 38

GFSSGP_prec_cthk_072.txt.gz
RH
70 72 81 81 88 96 98 96 81 82 75 75 76 76 79 77 70 65 51 42 41 43 47 50 50 53 57 59 54 52 49 50 53 57 57 55 51 52 54 54 60 57 57 56 50 52 55 61 61
77 84 88 94 99 97 99 93 84 76 73 77 78 80 78 80 73 62 51 40 39 41 44 47 49 53 54 54 54 52 54 55 61 66 66 60 60 68 73 67 58 62 62 56 61 63 61 61 61
73 81 87 97 95 92 93 89 81 77 76 74 77 81 78 81 72 60 47 38 36 39 43 46 48 49 50 51 52 55 59 60 64 58 64 56 61 66 68 60 58 64 61 65 59 58 57 59 57
70 79 85 90 84 85 89 88 81 74 76 77 77 79 79 77 66 58 47 37 35 36 41 43 44 45 45 54 60 60 61 54 56 54 53 54 57 55 55 53 54 56 56 52 46 39 43 49 61
79 85 90 90 89 81 81 83 81 75 76 76 75 79 81 75 66 57 47 36 33 34 40 40 42 45 51 55 53 53 50 45 46 47 43 49 54 53 50 53 58 55 53 41 38 39 38 44 60
84 90 95 92 85 78 81 85 80 82 76 75 76 75 80 69 65 60 45 37 32 30 35 36 42 45 48 46 50 45 42 44 42 38 43 45 52 50 49 50 57 56 45 36 36 39 41 50 62
89 92 94 89 87 89 84 86 83 76 77 77 72 75 75 71 66 59 45 33 29 27 32 36 38 41 40 43 42 41 40 38 34 43 45 50 51 48 42 47 61 53 41 34 34 41 52 54 58
85 88 94 93 92 81 82 85 81 77 80 77 74 74 71 69 66 59 48 32 28 27 32 33 35 37 38 38 38 35 34 31 42 49 50 48 51 45 45 57 56 50 48 36 35 47 50 55 59
78 87 94 91 82 82 85 90 91 83 80 78 80 72 65 69 69 65 53 41 33 29 34 31 33 37 38 40 38 33 30 39 51 44 39 38 43 38 47 51 54 54 52 46 38 46 51 56 64
76 86 85 76 78 86 85 92 91 87 83 75 81 76 71 70 70 65 55 44 36 29 30 32 34 37 39 39 34 34 35 56 56 49 41 33 33 35 37 44 46 54 53 57 57 57 61 58 61
70 76 72 77 79 76 87 96 95 92 84 76 81 76 72 71 72 68 57 45 29 27 28 30 32 36 38 35 35 34 38 51 55 60 43 40 36 35 40 47 47 59 56 64 67 62 61 61 66
66 64 67 71 82 80 85 86 87 95 90 84 75 71 69 71 72 71 57 50 41 30 28 31 32 33 36 35 34 29 36 41 58 57 57 46 56 48 55 59 53 56 60 58 74 64 58 60 66
61 58 61 66 77 79 83 82 81 82 91 89 82 73 69 69 70 68 60 51 42 34 30 31 33 31 36 38 43 35 37 48 55 56 56 49 48 61 72 66 61 64 58 51 57 56 55 60 59
56 52 51 46 64 75 76 86 87 90 90 80 80 72 70 68 69 67 60 52 41 41 37 33 36 32 37 40 42 44 45 48 57 62 57 47 47 55 53 63 56 54 51 37 40 48 58 57 58
48 45 41 45 58 70 70 83 93 85 88 83 76 69 71 69 69 66 60 48 41 42 40 37 37 33 36 43 39 41 47 52 60 66 58 53 54 59 60 56 58 64 59 48 48 46 52 56 57
37 36 37 41 52 67 66 80 90 88 88 81 75 66 70 70 70 66 57 47 42 41 42 40 40 34 36 44 61 42 60 59 60 62 58 52 55 59 56 54 52 53 60 52 39 50 44 42 50
35 36 37 43 46 51 65 79 79 75 75 73 63 63 63 67 71 68 56 47 43 43 42 40 40 41 47 45 42 46 58 54 54 50 47 56 57 64 64 60 52 57 54 55 50 55 49 44 49
32 35 31 31 45 51 58 65 68 76 73 69 63 66 58 64 66 67 60 51 45 46 42 39 37 38 41 45 44 56 55 51 52 48 47 50 59 55 55 56 58 61 53 50 54 50 47 44 43
25 27 29 32 34 40 48 58 64 76 68 73 77 78 59 60 67 68 61 52 48 46 44 39 34 35 37 42 42 51 52 45 50 53 48 48 58 56 53 53 56 52 52 49 57 50 42 41 45
21 24 26 29 29 35 51 60 69 74 73 69 68 73 63 62 63 66 61 58 45 44 43 40 32 31 33 41 40 50 56 49 53 57 43 43 55 53 48 49 52 47 54 52 50 49 46 41 40
24 24 22 28 33 38 47 69 74 74 76 74 74 66 63 59 57 62 60 56 50 47 44 39 32 29 32 43 40 50 49 50 57 51 44 43 47 54 54 48 52 46 38 44 49 48 48 41 39
27 20 20 23 25 27 42 68 79 80 77 75 73 68 75 70 52 62 62 56 50 45 46 42 34 29 32 38 40 43 45 49 50 50 48 45 44 51 55 54 52 52 41 36 40 46 46 39 37
22 22 20 20 23 25 31 29 47 65 70 67 69 65 65 63 51 46 50 53 49 48 45 43 38 31 29 37 37 42 48 51 48 49 47 40 37 38 48 50 51 48 45 36 38 37 40 40 40
22 21 21 22 23 25 26 25 37 51 47 58 66 66 68 65 60 47 46 51 47 46 48 43 40 32 28 36 38 41 41 47 49 46 41 40 38 39 38 44 45 44 47 41 33 38 38 35 36
22 23 26 25 25 25 25 28 23 31 33 42 55 64 68 71 69 64 55 41 49 44 43 42 40 36 28 28 36 36 42 47 49 45 45 41 39 40 41 44 47 46 46 47 45 37 34 35 36
27 26 28 26 26 26 20 26 25 26 27 32 37 45 60 63 68 68 58 46 45 43 40 39 38 38 33 25 31 33 36 43 45 44 42 38 37 39 38 39 46 49 47 44 44 39 31 33 34
27 29 26 26 26 28 24 19 16 22 25 24 30 39 46 46 50 66 59 47 41 44 41 36 36 36 35 32 23 30 30 34 40 41 36 33 37 38 35 37 35 40 39 36 37 43 43 33 31
28 29 32 32 33 35 29 23 23 29 31 32 36 34 42 45 45 58 56 59 56 43 42 42 40 38 36 36 32 23 27 28 36 38 36 32 37 40 37 37 37 35 35 36 29 32 38 39 30
28 30 32 31 35 39 34 26 30 39 40 40 40 32 39 47 49 48 47 52 59 53 42 40 39 36 38 39 37 32 23 25 29 34 34 32 35 40 37 36 36 35 32 30 26 26 28 33 36
30 33 32 35 34 39 39 35 33 45 43 42 42 31 36 48 53 63 56 47 52 50 49 43 43 41 32 37 42 38 31 24 23 26 30 31 34 37 38 37 35 34 32 30 25 23 24 27 31

GFSSGP_prec_cthk_075.txt.gz
RH
69 72 77 82 90 94 90 82 87 80 76 75 74 73 73 70 67 60 44 38 42 48 53 56 57 58 62 62 58 54 48 46 51 53 54 49 47 50 50 58 57 51 54 48 51 52 58 60 58
75 82 88 94 99 96 95 90 89 80 75 75 79 82 79 75 71 56 41 37 40 47 52 54 54 57 60 55 51 51 53 57 63 62 59 64 68 73 65 59 59 59 57 57 61 59 60 62 61
78 84 87 96 96 91 94 91 84 82 79 78 82 83 83 76 72 50 39 35 40 45 49 49 52 56 56 54 53 57 59 66 62 64 56 60 63 67 63 57 62 63 62 65 63 59 61 57 68
73 79 88 91 88 84 86 86 81 81 81 79 80 83 83 76 67 51 36 34 37 42 45 50 53 53 54 53 57 60 58 59 57 57 53 56 56 58 55 57 55 59 61 49 46 45 54 58 71
77 85 90 91 91 83 83 87 87 83 82 79 79 83 84 79 63 50 35 33 35 40 44 47 49 49 55 60 57 57 51 50 50 48 54 57 56 51 51 54 55 51 40 38 39 43 52 66 78
88 89 94 94 85 85 86 86 86 85 83 78 79 79 83 74 63 50 36 32 34 40 44 45 46 52 55 54 51 50 47 51 44 46 51 55 51 49 49 55 57 44 35 38 39 44 57 71 79
89 93 95 89 86 91 88 86 88 82 79 77 75 80 79 70 64 50 37 34 34 40 40 44 47 49 48 51 46 46 46 39 41 46 52 54 48 45 50 56 47 36 35 38 42 49 55 66 77
88 89 86 88 95 91 90 90 92 85 84 78 75 76 75 70 62 55 42 36 33 35 36 41 44 42 43 41 39 41 36 38 50 49 49 43 39 47 59 51 45 35 34 37 43 55 57 61 68
83 90 93 86 83 86 91 93 92 91 88 80 74 72 72 69 66 58 42 34 30 32 36 38 39 39 39 39 37 35 36 49 45 41 42 40 43 52 55 52 51 42 35 40 48 53 59 63 67
82 87 82 81 82 88 88 96 91 97 87 83 83 76 77 67 64 54 40 32 29 31 35 35 36 38 39 37 34 33 48 49 43 34 33 37 41 45 47 50 54 50 49 56 56 55 58 65 72
78 81 74 77 76 85 89 95 89 95 95 83 79 77 78 69 65 58 44 32 29 30 33 34 37 38 40 34 34 38 58 52 53 39 33 32 35 40 45 49 52 52 61 58 57 60 65 63 61
74 71 72 72 75 79 87 86 85 92 92 88 83 78 76 71 69 63 50 39 31 28 29 34 37 38 37 34 37 39 52 58 56 49 48 42 40 50 55 54 54 58 65 71 61 59 69 69 60
71 67 62 60 60 70 82 82 78 83 92 93 84 81 82 74 74 67 57 44 33 28 28 32 34 35 35 35 37 35 42 59 58 54 48 52 48 63 62 61 57 59 54 59 54 55 67 62 55
66 59 55 51 54 67 77 82 80 83 86 90 84 79 82 76 76 74 63 47 44 33 30 30 32 33 35 37 39 37 43 62 62 61 50 53 57 60 62 59 57 52 47 49 47 56 60 57 54
53 52 47 52 58 67 75 79 81 81 85 86 80 75 77 74 76 74 65 52 43 36 32 32 32 32 36 41 47 42 55 62 62 61 54 53 55 61 58 59 59 58 45 43 44 52 56 58 56
42 44 41 52 57 70 71 79 78 77 86 87 78 66 69 72 75 74 66 53 45 48 43 37 36 33 35 40 41 48 53 58 70 69 53 58 67 61 56 54 56 59 53 50 45 48 51 54 57
40 45 43 38 54 64 64 74 72 74 69 78 65 59 64 67 74 71 66 53 45 45 47 40 40 36 35 43 60 46 62 60 63 56 57 60 64 67 63 55 58 55 55 46 49 48 44 49 55
36 41 44 40 51 46 54 60 65 73 77 74 70 62 55 60 72 70 66 53 48 45 46 41 40 41 41 43 52 49 58 55 53 52 57 64 63 61 59 60 60 59 54 49 50 45 45 46 50
33 36 40 45 35 32 45 51 61 66 79 77 72 70 64 55 63 67 67 54 47 47 48 45 39 39 44 43 50 56 54 53 54 56 60 62 61 55 55 53 52 54 48 50 49 43 44 42 42
29 31 36 37 40 40 52 49 58 64 73 74 77 75 69 59 56 58 63 57 46 46 46 45 44 39 41 37 42 52 53 53 60 58 52 62 59 54 53 51 53 53 52 49 50 43 41 40 39
27 25 36 40 37 49 51 60 64 62 73 70 74 77 73 74 57 57 55 57 51 45 43 44 44 39 39 39 40 46 59 58 63 53 48 54 58 51 50 51 49 44 47 49 48 44 42 41 41
29 22 32 36 30 29 45 68 64 64 68 63 72 77 75 73 64 58 53 52 51 47 42 44 45 42 37 36 40 43 50 53 56 54 49 47 54 59 60 51 52 46 40 43 47 46 41 41 40
25 24 24 32 30 27 29 42 48 71 72 66 66 74 78 72 71 57 54 49 48 48 44 44 44 45 38 34 35 42 44 48 52 57 52 50 50 53 58 55 53 49 42 38 40 44 44 38 38
24 25 24 25 28 29 26 26 30 56 53 49 60 68 75 71 66 58 53 51 49 49 45 46 45 45 41 34 34 40 41 44 51 51 53 48 42 41 48 53 50 54 48 42 39 40 41 39 36
24 25 27 26 29 29 26 26 24 34 39 38 40 56 68 69 68 63 58 46 44 43 40 44 44 44 41 38 33 34 37 43 52 52 54 48 44 42 42 48 48 51 50 50 42 39 38 37 36
24 26 28 25 29 29 28 28 26 26 29 29 33 38 62 69 66 64 59 52 42 40 41 42 45 42 40 35 33 32 33 41 47 51 50 48 46 45 48 51 55 55 52 52 49 39 35 35 35
29 32 27 29 29 28 28 28 27 33 35 33 33 34 40 51 61 59 65 56 42 39 38 39 43 46 42 37 32 29 32 40 44 48 49 49 48 45 47 44 42 51 52 47 46 48 42 34 33
30 30 32 32 34 33 30 33 41 40 41 42 38 37 35 40 49 52 65 59 46 37 35 37 39 43 46 42 36 32 28 32 37 43 43 43 43 44 46 43 44 45 45 45 39 43 47 41 31
34 34 35 35 39 40 38 40 37 44 43 43 41 37 32 34 37 50 62 62 58 65 54 42 37 39 38 40 39 37 32 25 29 35 39 39 40 41 45 42 43 42 40 42 38 34 38 40 40
29 33 36 42 41 43 45 40 30 32 34 38 39 36 33 34 37 47 62 67 64 68 71 57 46 35 36 38 38 37 35 32 23 28 33 36 36 38 44 43 42 43 41 38 36 34 30 34 35